Hourly Data Report for December 17, 2020

FORT GOOD HOPE CS
NORTHWEST TERRITORIES
Current Station Operator: ECCC - MSC

66°14'32.044" N
128°38'39.081" W
81.70 m
2201450
71491
ZGH

Download Data

Hourly Data (December 2020)
Hourly Data Report for December 17, 2020
TIME
LST
Temp Definition
°C
Dew Point Definition
°C
Rel Hum Definition
%
Precip. Amount Definition
mm

Wind Dir Definition
10's deg

Wind Spd Definition
km/h
Visibility Definition
km
Stn Press Definition
kPa
Hmdx Definition


Wind Chill Definition


Weather Definition


00:00 -41.9 -45.9 65 0.0 1 2   101.42   -45 LegendNANA
01:00 -42.7 -46.7 65 0.0 17 5   101.47   -50 LegendNANA
02:00 -44.0 -48.0 64 0.0   0   101.49     LegendNANA
03:00 -44.3 -48.4 64 0.0   0   101.50     LegendNANA
04:00 -45.8 -49.9 63 0.0 0 1   101.53   -47 LegendNANA
05:00 -44.9 -49.0 63 0.0 7 3   101.56   -49 LegendNANA
06:00 -45.4 -49.5 63 0.0 9 2   101.55   -48 LegendNANA
07:00 -46.1 -50.3 63 0.0 3 4   101.60   -52 LegendNANA
08:00 -45.3 -49.4 63 0.0 14 2   101.58   -48 LegendNANA
09:00 -45.2 -49.4 63 0.0 32 2   101.57   -48 LegendNANA
10:00 -46.7 -50.9 62 0.0 3 2   101.59   -50 LegendNANA
11:00 -46.9 -51.0 62 0.0 15 5   101.62   -55 LegendNANA
12:00 -45.8 -50.0 63 0.0 35 4   101.63   -52 LegendNANA
13:00 -46.6 -50.8 62 0.0   0   101.62     LegendNANA
14:00 -46.5 -50.7 62 0.0 24 1   101.60   -48 LegendNANA
15:00 -46.1 -50.4 62 0.0 36 4   101.60   -52 LegendNANA
16:00 -46.4 -50.7 62 0.0 17 2   101.57   -50 LegendNANA
17:00 -46.3 -50.6 62 0.0   0   101.56     LegendNANA
18:00 -46.9 -51.1 62 0.0 14 3   101.53   -52 LegendNANA
19:00 -46.9 -51.2 62 0.0   0   101.48     LegendNANA
20:00 -45.9 -50.2 62 0.0 25 2   101.38   -49 LegendNANA
21:00 -46.9 -51.2 62 0.0 3 1   101.38   -48 LegendNANA
22:00 -46.6 -50.9 62 0.0 10 4   101.34   -53 LegendNANA
23:00 -46.9 -51.1 62 0.0 11 4   101.25   -53 LegendNANA

Notes on Data Quality.

Legend

  • E = Estimated
  • M = Missing
  • NA = Not Available*
  • [empty] = Indicates an unobserved value
Date modified: